Home   Weather   Libreville   Past weeks

Flag for Gabon Past Weather in Libreville, Gabon — Yesterday and Last 2 Weeks

Now
84 °F

Passing clouds.


Feels Like: 96 °F
Forecast: 78 / 85 °F
Wind: 8 mph from Southwest

Location: Libreville Airport

Current Time: Jan 21, 2017 at 11:11:05 pm

Latest Report: Jan 21, 2017 at 10:00 pm


Visibility: N/A

Pressure: 29.83 "Hg

Humidity: 84%

Dew Point: 79 °F

Location of LibrevilleLocation

Past Weather in Libreville — Graph

°F

Libreville Temperature Yesterday

Maximum temperature yesterday: 88 °F (at 2:00 pm)
Minimum temperature yesterday: 81 °F (at 7:00 am)
Average temperature yesterday: 84 °F

High & Low Weather Summary for the Past Weeks

 TemperatureHumidityPressure
High88 °F (Jan 7, 3:00 pm)100% (Jan 7, 5:00 am)29.92 "Hg (Jan 7, 5:00 am)
Low72 °F (Jan 12, 7:00 am)62% (Jan 7, 4:00 pm)29.68 "Hg (Jan 14, 5:00 pm)
Average83 °F83%29.81 "Hg
* Reported Jan 6 8:00 pm — Jan 21 8:00 pm, Libreville, Weather by CustomWeather, © 2017

Note: Actual official high and low records may vary slightly from our data, if they occured in-between our weather recording intervals... More about our weather records

Advertising

Libreville Weather History for the Previous 24 Hours

Scroll right to see more
 ConditionsComfort  
Time TempWeatherWind HumidityBarometerVisibility
8:00 pm
Sat, Jan 21
84 °FPassing clouds.8 mph84%29.80 "HgN/A
7:00 pm84 °FPassing clouds.5 mph84%29.77 "HgN/A
6:00 pm84 °FPassing clouds.7 mph84%29.74 "HgN/A
5:00 pm86 °FPassing clouds.8 mph79%29.74 "HgN/A
4:00 pm88 °FPassing clouds.8 mph70%29.74 "HgN/A
3:00 pm88 °FScattered clouds.2 mph75%29.77 "HgN/A
2:00 pm88 °FPassing clouds.8 mph70%29.77 "HgN/A
1:00 pm86 °FScattered clouds.2 mph75%29.83 "HgN/A
12:00 pm88 °FScattered clouds.8 mph66%29.86 "HgN/A
11:00 am86 °FPassing clouds.8 mph75%29.86 "HgN/A
10:00 am86 °FPassing clouds.8 mph75%29.86 "HgN/A
9:00 am84 °FPassing clouds.9 mph79%29.86 "HgN/A
8:00 am82 °FPassing clouds.7 mph89%29.83 "HgN/A
7:00 am81 °FPassing clouds.No wind89%29.83 "Hg6 mi
6:00 am81 °FPassing clouds.No wind89%29.80 "Hg6 mi
5:00 am81 °FPassing clouds.No wind89%29.80 "Hg6 mi
4:00 am82 °FPassing clouds.No wind84%29.77 "Hg6 mi
1:00 am82 °FThunderstorms. Passing clouds.9 mph84%29.80 "Hg5 mi
12:00 am84 °FThunderstorms. Passing clouds.7 mph84%29.80 "Hg5 mi
11:00 pm
Fri, Jan 20
84 °FThunderstorms. Passing clouds.8 mph79%29.83 "Hg5 mi
Weather by CustomWeather, © 2017

See weather overviewHow to use our weather pages